Snowfall_Accumulation
nan nan nan nan nan nan nan nan nan nan nan nan nan nan nan nan nan 0.0 0.0 0.0 0.1 2.7 0.6 0.0 0.0 0.2 0.6 0.8 7.6 0.8 9.3 5.0 6.9 11.1 7.1 5.7 2.2 0.6 0.6 0.0 0.0 0.9 3.3 7.8 5.6 11.1 13.5 0.0 0.0 0.0 0.0 0.0 0.0 0.0
nan nan nan nan nan nan nan nan nan nan nan nan nan nan nan nan nan nan 0.0 0.0 0.0 1.1 1.4 0.0 0.0 0.0 0.0 0.0 0.6 0.4 1.6 0.2 2.1 5.5 4.5 2.4 3.9 2.9 0.3 2.1 0.0 1.6 0.3 1.5 0.4 1.6 0.0 0.0 0.0 0.0 0.0 0.0 0.0 0.0
nan nan nan nan nan nan nan nan nan nan nan nan nan nan nan nan nan nan 0.0 0.0 0.1 1.9 0.7 0.5 0.6 0.0 0.0 0.0 0.0 10.9 0.8 0.0 0.2 0.0 1.7 1.2 1.3 0.6 2.7 0.8 0.1 0.0 0.0 0.4 0.2 0.0 0.0 0.0 0.0 0.0 0.0 0.0 0.0 0.0
nan nan nan nan nan nan nan nan nan nan nan nan nan nan nan nan nan nan 0.0 0.0 0.1 1.2 6.1 1.6 0.0 0.1 0.0 0.0 0.0 0.0 0.0 0.0 0.0 0.1 3.9 3.4 3.5 0.1 0.7 0.2 0.5 0.1 0.0 0.0 0.0 0.0 0.0 0.0 0.0 0.0 0.0 0.0 0.0 0.0
nan nan nan nan nan nan nan nan nan nan nan nan nan nan nan nan nan nan 0.0 0.0 0.0 2.0 3.0 1.6 0.0 0.0 0.0 0.0 0.0 0.0 0.0 0.1 0.9 3.6 5.3 4.0 0.2 0.7 0.3 0.3 0.3 0.0 0.0 0.3 0.4 0.0 0.0 0.0 0.0 0.0 0.0 0.0 0.0 0.0
nan nan nan nan nan nan nan nan nan nan nan nan nan nan nan nan nan 0.0 9.3 0.0 0.0 0.0 5.4 5.6 0.2 0.1 0.0 0.0 0.0 0.0 0.0 0.5 1.0 1.8 1.7 0.7 0.0 0.3 2.9 1.0 0.0 0.0 0.0 0.0 0.0 0.0 0.0 0.0 0.0 0.0 0.0 0.0 0.0 0.0
nan nan nan nan nan nan nan nan nan nan nan nan nan nan nan nan 0.0 1.8 0.8 0.0 nan 0.0 4.3 2.5 1.1 0.1 0.0 0.1 0.3 1.2 0.3 1.6 1.3 1.5 1.6 0.3 0.1 0.2 1.1 0.9 0.0 0.0 0.0 0.0 0.0 0.0 0.0 0.0 0.1 0.0 0.0 0.0 0.0 0.0
nan nan nan nan nan nan nan nan nan nan nan nan nan nan nan nan nan 0.3 0.0 nan nan 0.5 1.1 4.7 2.1 0.8 0.0 1.4 2.1 0.2 2.4 2.2 2.3 1.0 0.7 0.5 0.3 0.7 1.7 0.0 0.0 0.0 0.0 0.0 0.0 0.0 0.0 0.0 0.0 0.0 0.0 0.0 0.0 0.0
nan nan nan nan nan nan nan nan nan nan nan nan nan nan 0.0 0.1 0.5 0.0 nan nan 0.0 1.4 5.3 2.4 1.5 7.4 0.0 0.5 0.6 0.9 0.8 6.1 1.1 3.1 1.4 0.6 0.8 2.1 0.0 0.0 0.0 0.0 0.0 0.0 0.0 0.0 0.0 0.0 0.0 0.0 0.0 0.0 0.0 0.0
nan nan nan nan nan nan nan nan nan nan nan nan 0.0 0.4 6.8 0.1 nan nan 0.2 1.9 2.3 1.6 2.6 1.9 0.1 2.2 0.3 0.3 1.4 1.0 1.5 2.2 3.9 1.5 0.5 1.8 0.3 0.0 0.0 0.0 0.0 0.0 0.0 0.0 0.0 0.1 0.0 0.0 0.0 0.0 0.0 0.0 0.0 0.0
nan nan nan nan nan nan nan nan nan nan nan 0.0 0.8 0.5 0.0 nan 0.0 0.3 4.3 2.5 0.8 0.9 0.2 0.3 0.0 0.2 0.0 1.7 2.0 0.5 1.4 1.0 3.7 0.5 1.4 1.3 0.8 0.1 0.0 0.0 0.0 0.0 0.0 0.0 0.0 0.0 0.0 0.0 0.0 0.0 0.0 0.0 0.0 0.0
nan nan nan nan nan nan nan nan nan 0.0 0.0 0.0 0.0 0.0 0.0 0.2 1.9 1.3 2.5 0.7 0.2 0.2 0.4 0.4 0.5 0.2 0.3 0.0 0.9 0.8 0.7 1.6 0.5 0.2 3.5 1.5 0.6 0.0 0.0 0.0 0.0 0.0 0.0 0.0 0.0 0.0 0.0 0.0 0.0 0.0 0.0 0.0 0.0 0.0
nan nan nan nan nan nan nan nan nan nan nan 0.0 0.4 0.4 1.1 1.9 28.9 0.8 2.9 1.6 3.2 0.2 0.3 0.2 3.4 0.4 0.3 0.1 0.9 1.0 3.8 3.7 0.2 10.1 0.8 0.6 0.4 0.0 0.0 0.0 0.0 0.0 0.0 0.0 0.0 0.0 0.0 0.0 0.0 0.1 0.3 0.2 0.3 0.3
nan nan nan nan nan nan nan nan nan 0.0 0.0 0.7 0.4 31.1 3.8 1.2 0.5 0.3 0.4 0.7 0.2 0.1 0.2 0.3 0.9 0.8 0.4 1.2 0.5 1.4 0.3 0.5 5.2 4.1 1.6 0.8 0.2 0.1 0.2 0.2 0.1 0.2 0.1 0.2 0.1 0.0 0.1 0.2 0.2 0.2 1.9 2.4 1.9 1.8
nan nan nan nan nan nan nan nan nan 0.0 0.2 1.5 0.6 12.9 2.4 0.4 0.3 0.4 0.3 0.2 0.1 0.2 0.5 1.9 0.9 0.4 1.0 1.6 0.3 0.2 2.9 2.5 1.4 3.5 1.3 0.8 0.2 0.3 0.5 0.5 0.8 2.2 2.6 1.6 1.4 2.8 4.2 3.3 2.4 3.7 3.3 2.2 1.7 4.4
nan nan 0.0 nan nan nan nan nan 0.0 0.0 0.8 0.4 0.1 0.8 0.4 1.6 3.9 2.3 0.8 0.9 0.2 0.3 0.7 1.3 0.7 1.0 1.1 0.5 0.2 0.6 0.4 3.2 2.6 1.5 0.8 0.4 0.1 0.2 0.2 0.4 0.5 0.9 1.2 2.1 1.4 2.2 4.5 7.2 7.7 7.5 7.2 6.9 8.1 6.8
nan 0.0 nan nan nan nan nan 0.0 0.0 0.9 0.6 0.1 5.8 0.5 1.2 0.7 1.8 1.0 0.7 0.5 0.1 0.9 3.9 0.9 1.8 0.2 0.5 1.4 0.3 1.8 4.5 3.2 1.2 0.8 0.5 0.1 0.4 0.2 0.2 0.2 1.4 0.3 1.3 1.8 2.2 3.1 4.4 5.1 5.7 4.9 6.6 7.2 4.8 5.0
0.0 0.0 nan nan nan nan 0.2 0.0 1.1 0.9 0.2 0.6 6.3 2.5 0.6 0.6 1.7 1.3 0.4 0.3 0.6 0.8 0.9 0.4 0.9 0.5 2.4 0.5 2.8 2.9 1.7 1.1 0.6 0.8 0.7 0.3 0.1 0.3 0.2 0.2 0.3 0.6 0.8 3.4 3.0 3.9 4.0 3.2 2.6 4.1 3.0 3.4 4.2 4.8
0.0 0.0 nan nan 0.0 1.3 2.5 0.7 0.2 1.9 1.8 0.6 0.6 0.4 0.4 1.1 0.8 0.5 0.5 0.4 0.5 0.3 1.9 1.2 0.2 1.3 2.0 1.9 2.1 1.7 1.4 1.0 1.7 2.2 1.7 0.6 0.4 0.8 1.0 0.7 0.5 1.8 2.3 2.8 1.8 3.0 2.7 1.8 1.9 2.3 2.8 2.5 2.6 3.9
nan nan nan nan nan 4.8 2.8 1.8 0.1 0.2 0.8 0.9 0.3 0.5 0.5 1.0 0.9 2.1 1.2 0.7 0.5 1.2 1.5 1.4 1.7 3.1 2.8 1.9 2.3 1.8 1.5 1.2 1.1 2.5 2.7 2.8 2.6 1.0 0.6 1.3 2.6 1.3 2.2 1.3 2.5 1.1 3.1 2.9 3.0 1.4 1.2 1.8 3.2 5.1
nan nan nan 0.0 0.0 0.6 0.8 1.0 0.5 0.3 0.4 0.6 0.4 0.2 1.9 0.6 1.3 2.4 1.5 0.3 2.9 1.8 1.8 1.7 4.6 2.6 1.5 3.4 1.9 1.1 1.1 0.6 1.2 1.7 1.9 5.3 2.7 1.2 1.5 1.5 1.0 1.0 0.9 2.1 3.2 4.2 2.2 2.5 2.2 1.6 6.2 7.9 4.4 3.4
0.0 nan 0.2 0.1 2.2 2.1 3.4 0.1 0.2 0.4 0.6 0.4 0.4 0.2 1.6 6.4 5.8 2.7 0.5 2.5 3.0 3.5 2.0 2.9 3.1 2.6 1.8 1.7 2.6 0.8 1.4 0.4 0.3 0.7 0.4 0.6 2.8 1.7 1.8 1.6 1.0 2.0 1.8 2.3 1.5 3.9 2.9 1.5 1.8 2.3 4.8 7.4 2.3 2.9
nan 0.4 0.9 0.4 4.0 7.1 16.5 0.1 0.4 0.2 2.1 1.0 0.4 0.8 2.2 2.0 1.2 0.0 4.4 1.6 4.8 3.7 2.5 1.9 1.4 2.4 2.7 1.9 1.1 0.5 0.9 0.8 2.6 3.4 2.5 2.1 1.5 1.4 1.2 1.3 1.0 2.8 2.8 2.1 0.9 1.8 2.7 1.7 2.4 6.9 4.3 4.9 5.2 12.1
nan 1.9 5.8 3.5 3.9 14.2 0.5 4.8 0.4 0.6 0.5 1.1 1.4 2.3 0.4 1.4 0.4 3.5 5.7 6.7 6.2 1.4 1.7 1.5 1.4 3.1 3.0 2.2 3.9 4.5 4.6 2.5 2.7 2.9 2.6 2.6 2.0 2.4 1.2 1.3 1.1 1.1 1.2 1.2 1.2 2.3 2.6 7.4 5.0 2.8 8.2 15.3 18.0 16.7
19.1 23.7 7.6 36.4 2.6 10.3 6.9 3.8 1.6 1.3 6.4 5.3 4.5 5.2 14.1 2.1 11.6 9.0 4.0 8.5 5.0 5.1 4.7 3.0 2.6 2.2 2.3 3.5 3.8 5.3 4.5 4.9 5.9 6.3 5.9 3.7 2.9 2.9 2.9 1.8 2.1 2.0 1.5 4.8 8.3 9.8 10.2 9.6 10.2 9.2 5.6 17.8 6.2 7.2
37.6 12.9 27.1 5.4 12.8 7.0 5.6 9.8 10.5 10.0 5.1 6.4 5.3 2.6 1.3 5.3 7.7 13.6 8.8 11.8 10.4 7.6 19.5 15.3 10.0 4.1 4.1 3.4 3.4 3.8 4.8 4.5 4.3 5.2 7.7 5.8 6.8 7.6 9.0 7.9 6.7 6.2 2.9 4.0 8.2 13.5 9.7 10.7 11.9 5.6 11.1 4.9 6.4 14.6
33.8 16.2 1.3 0.3 0.5 0.3 7.6 5.4 1.1 4.0 7.4 10.8 5.9 7.0 8.5 18.4 15.6 7.9 4.9 4.4 5.1 7.4 4.2 3.9 4.0 4.1 5.1 4.4 3.9 4.1 3.3 3.3 3.4 6.5 5.5 6.5 6.8 7.6 9.0 14.0 10.3 7.2 4.3 5.6 7.0 14.1 14.5 13.8 14.4 9.3 12.1 12.1 12.8 14.9
4.4 2.0 11.9 4.7 7.4 0.8 6.7 4.5 6.1 7.8 4.2 1.6 5.1 10.5 12.7 12.4 11.0 9.1 6.9 6.7 7.7 2.9 2.4 2.3 2.0 2.6 3.0 4.0 4.9 5.6 4.5 4.7 5.7 5.3 3.8 3.6 4.5 9.6 9.4 8.2 7.3 7.2 8.7 14.3 14.8 15.9 11.0 15.4 16.7 16.2 14.5 15.5 19.6 14.7
7.2 2.4 2.9 15.0 6.6 4.7 9.5 9.7 7.7 2.9 1.1 2.9 13.9 10.8 9.3 5.4 11.7 8.6 7.8 7.0 6.0 5.4 5.9 7.3 10.2 9.9 5.5 4.0 6.9 5.2 7.5 8.9 7.0 10.6 12.1 14.9 13.1 12.5 8.1 9.0 9.2 11.2 11.0 12.4 8.0 9.8 11.5 13.7 14.8 16.0 12.4 18.1 16.8 18.9
6.5 1.5 6.4 8.3 11.9 8.4 17.8 10.5 13.6 10.5 0.9 3.4 1.7 1.9 2.9 9.8 15.5 7.9 9.2 8.0 9.9 19.9 27.2 21.7 20.2 17.5 26.9 19.9 17.4 11.6 10.9 13.9 13.0 20.0 23.0 18.0 16.1 14.2 15.6 16.2 15.0 13.8 13.8 24.3 18.4 11.9 9.8 17.0 14.3 22.5 20.1 19.2 19.4 22.1
1.7 5.8 8.2 4.6 12.0 20.1 18.1 17.7 18.1 9.8 9.5 15.3 16.5 18.4 14.4 11.8 14.7 9.5 8.0 11.1 11.2 30.2 31.2 33.6 32.6 31.1 27.4 19.4 28.4 26.6 20.6 25.9 12.5 9.1 8.4 12.6 16.9 20.2 19.5 16.6 16.0 17.2 17.9 17.7 22.9 21.0 23.5 27.7 24.9 22.3 17.3 14.0 16.0 17.0
9.7 14.6 18.6 11.3 15.1 24.8 13.3 26.2 20.5 18.1 24.3 23.5 28.7 23.5 29.3 25.8 18.2 14.5 15.2 21.8 25.6 28.0 9.1 24.3 33.8 18.3 16.8 15.1 22.5 17.8 10.1 13.4 14.0 14.3 12.4 17.6 20.4 22.9 14.0 11.5 22.3 20.5 16.8 19.0 17.3 19.8 17.6 25.5 27.9 28.2 22.7 19.0 17.6 15.9
24.9 17.8 13.0 12.6 26.2 14.7 17.5 20.1 5.2 20.0 18.6 23.2 27.3 24.7 24.8 22.0 17.5 21.0 8.7 20.1 23.7 25.3 22.3 28.3 29.4 32.7 19.4 16.4 15.7 17.0 12.1 15.7 14.3 10.6 9.3 9.3 9.3 10.6 17.8 23.9 26.5 21.8 13.5 19.0 20.8 19.5 17.6 15.2 19.6 21.7 24.2 28.1 24.3 19.2
Water_Equivalent
nan nan nan nan nan nan nan nan nan nan nan nan nan nan nan nan nan 0.00 0.00 0.00 0.02 0.67 0.19 0.00 0.00 0.05 0.17 0.22 1.43 0.21 1.46 1.06 1.63 2.12 1.35 1.22 0.52 0.18 0.14 0.01 0.01 0.24 0.73 1.49 1.10 1.88 1.60 0.00 0.00 0.00 0.00 0.00 0.00 0.00
nan nan nan nan nan nan nan nan nan nan nan nan nan nan nan nan nan nan 0.00 0.00 0.00 0.37 0.35 0.00 0.00 0.00 0.00 0.00 0.16 0.09 0.26 0.05 0.52 1.09 0.86 0.57 0.86 0.63 0.06 0.40 0.00 0.37 0.08 0.36 0.10 0.40 0.00 0.00 0.00 0.00 0.00 0.00 0.00 0.00
nan nan nan nan nan nan nan nan nan nan nan nan nan nan nan nan nan nan 0.00 0.00 0.02 0.57 0.18 0.11 0.19 0.00 0.00 0.00 0.00 1.91 0.21 0.01 0.06 0.01 0.40 0.30 0.25 0.15 0.59 0.19 0.02 0.00 0.00 0.10 0.04 0.00 0.00 0.00 0.00 0.00 0.00 0.00 0.00 0.00
nan nan nan nan nan nan nan nan nan nan nan nan nan nan nan nan nan nan 0.00 0.00 0.03 0.34 1.24 0.33 0.00 0.02 0.00 0.00 0.00 0.00 0.00 0.00 0.00 0.03 0.82 0.72 0.68 0.03 0.17 0.05 0.12 0.02 0.01 0.00 0.01 0.00 0.00 0.00 0.00 0.00 0.00 0.00 0.00 0.00
nan nan nan nan nan nan nan nan nan nan nan nan nan nan nan nan nan nan 0.00 0.00 0.00 0.37 0.64 0.40 0.00 0.00 0.00 0.00 0.00 0.00 0.00 0.04 0.20 0.73 1.13 0.79 0.05 0.17 0.07 0.07 0.10 0.00 0.00 0.11 0.13 0.00 0.00 0.00 0.00 0.00 0.00 0.00 0.00 0.00
nan nan nan nan nan nan nan nan nan nan nan nan nan nan nan nan nan 0.00 3.47 0.00 0.00 0.00 1.08 1.09 0.05 0.01 0.01 0.01 0.00 0.00 0.00 0.12 0.21 0.38 0.39 0.15 0.00 0.08 0.58 0.20 0.00 0.00 0.00 0.00 0.00 0.00 0.00 0.00 0.00 0.00 0.00 0.00 0.00 0.00
nan nan nan nan nan nan nan nan nan nan nan nan nan nan nan nan 0.00 0.56 0.19 0.00 nan 0.00 0.95 0.54 0.27 0.03 0.00 0.02 0.09 0.34 0.09 0.43 0.29 0.32 0.33 0.07 0.02 0.06 0.26 0.18 0.00 0.00 0.00 0.00 0.00 0.00 0.00 0.00 0.03 0.00 0.00 0.00 0.00 0.00
nan nan nan nan nan nan nan nan nan nan nan nan nan nan nan nan nan 0.09 0.00 nan nan 0.13 0.22 1.07 0.50 0.25 0.00 0.34 0.47 0.04 0.52 0.46 0.48 0.21 0.15 0.09 0.06 0.14 0.31 0.00 0.00 0.00 0.00 0.00 0.00 0.00 0.00 0.00 0.00 0.00 0.00 0.00 0.00 0.00
nan nan nan nan nan nan nan nan nan nan nan nan nan nan 0.00 0.05 0.21 0.00 nan nan 0.00 0.32 1.10 0.64 0.37 1.73 0.00 0.13 0.14 0.20 0.18 1.21 0.24 0.62 0.27 0.12 0.16 0.37 0.00 0.00 0.00 0.00 0.00 0.00 0.00 0.00 0.00 0.00 0.00 0.00 0.00 0.00 0.00 0.00
nan nan nan nan nan nan nan nan nan nan nan nan 0.00 0.16 2.59 0.04 nan nan 0.09 0.70 0.71 0.41 0.56 0.42 0.02 0.51 0.09 0.07 0.35 0.24 0.32 0.42 0.74 0.30 0.09 0.35 0.06 0.00 0.00 0.00 0.00 0.00 0.00 0.00 0.00 0.02 0.00 0.00 0.00 0.00 0.00 0.00 0.00 0.00
nan nan nan nan nan nan nan nan nan nan nan 0.01 0.28 0.20 0.00 nan 0.00 0.09 1.33 0.69 0.22 0.25 0.05 0.08 0.00 0.06 0.00 0.40 0.45 0.11 0.37 0.24 0.71 0.10 0.28 0.24 0.17 0.03 0.00 0.00 0.00 0.00 0.00 0.00 0.00 0.00 0.00 0.00 0.00 0.00 0.00 0.00 0.00 0.00
nan nan nan nan nan nan nan nan nan 0.00 0.00 0.00 0.00 0.00 0.00 0.09 0.56 0.32 0.76 0.21 0.05 0.05 0.11 0.12 0.15 0.04 0.10 0.00 0.23 0.24 0.15 0.34 0.07 0.04 0.82 0.32 0.16 0.01 0.00 0.01 0.00 0.00 0.00 0.00 0.00 0.00 0.00 0.00 0.00 0.00 0.00 0.00 0.00 0.00
nan nan nan nan nan nan nan nan nan nan nan 0.00 0.11 0.11 0.30 0.66 5.35 0.26 0.73 0.33 1.03 0.08 0.11 0.06 1.06 0.13 0.10 0.04 0.24 0.27 1.00 1.05 0.06 2.58 0.20 0.14 0.07 0.01 0.01 0.00 0.00 0.00 0.00 0.00 0.00 0.00 0.00 0.00 0.00 0.02 0.07 0.06 0.09 0.08
nan nan nan nan nan nan nan nan nan 0.00 0.00 0.19 0.10 4.95 1.30 0.41 0.17 0.11 0.11 0.15 0.06 0.04 0.06 0.08 0.23 0.20 0.12 0.30 0.16 0.43 0.13 0.19 1.40 0.83 0.37 0.18 0.05 0.03 0.04 0.05 0.03 0.04 0.01 0.04 0.02 0.01 0.02 0.04 0.04 0.06 0.55 0.63 0.44 0.37
nan nan nan nan nan nan nan nan nan 0.00 0.07 0.43 0.16 2.68 0.76 0.14 0.14 0.16 0.10 0.07 0.03 0.05 0.16 0.49 0.24 0.11 0.28 0.49 0.12 0.08 0.93 0.84 0.41 0.66 0.29 0.21 0.04 0.08 0.10 0.09 0.16 0.45 0.58 0.35 0.30 0.71 1.05 0.73 0.45 0.71 0.69 0.45 0.32 0.92
nan nan 0.00 nan nan nan nan nan 0.00 0.01 0.25 0.12 0.04 0.25 0.15 0.53 1.45 0.94 0.30 0.36 0.05 0.09 0.19 0.35 0.18 0.23 0.31 0.19 0.07 0.22 0.10 0.69 0.53 0.34 0.20 0.10 0.02 0.03 0.05 0.07 0.10 0.17 0.24 0.42 0.28 0.40 0.90 1.45 1.53 1.36 1.36 1.28 1.73 1.44
nan 0.00 nan nan nan nan nan 0.00 0.00 0.18 0.16 0.01 1.87 0.20 0.37 0.24 0.65 0.35 0.19 0.15 0.03 0.25 1.29 0.25 0.45 0.03 0.14 0.33 0.06 0.32 0.95 0.60 0.28 0.21 0.13 0.02 0.07 0.05 0.05 0.05 0.32 0.08 0.28 0.37 0.43 0.59 0.83 0.95 1.05 0.83 1.06 1.21 0.84 0.88
0.00 0.00 nan nan nan nan 0.07 0.00 0.33 0.25 0.05 0.19 1.72 0.79 0.23 0.23 0.50 0.38 0.16 0.11 0.18 0.21 0.23 0.10 0.20 0.09 0.75 0.10 0.64 0.58 0.39 0.29 0.15 0.20 0.19 0.09 0.03 0.07 0.04 0.05 0.07 0.11 0.17 0.65 0.55 0.73 0.73 0.58 0.45 0.76 0.52 0.60 0.71 0.81
0.00 0.00 nan nan 0.00 0.27 0.63 0.18 0.06 0.45 0.53 0.21 0.20 0.15 0.15 0.38 0.26 0.17 0.22 0.17 0.15 0.10 0.42 0.27 0.06 0.31 0.45 0.38 0.49 0.43 0.38 0.24 0.37 0.54 0.43 0.15 0.10 0.19 0.23 0.14 0.10 0.34 0.42 0.52 0.33 0.61 0.55 0.33 0.36 0.45 0.53 0.50 0.50 0.74
nan nan nan nan nan 1.10 0.59 0.45 0.02 0.05 0.25 0.29 0.12 0.18 0.18 0.31 0.27 0.81 0.49 0.22 0.15 0.31 0.36 0.31 0.35 0.62 0.55 0.40 0.47 0.42 0.34 0.31 0.25 0.51 0.61 0.68 0.67 0.22 0.15 0.27 0.55 0.27 0.44 0.25 0.52 0.25 0.61 0.55 0.57 0.32 0.28 0.39 0.68 0.96
nan nan nan 0.00 0.01 0.15 0.19 0.26 0.11 0.10 0.14 0.19 0.14 0.08 0.53 0.17 0.36 0.72 0.44 0.09 0.84 0.45 0.38 0.36 1.01 0.57 0.29 0.73 0.41 0.25 0.25 0.13 0.28 0.31 0.38 0.84 0.67 0.34 0.40 0.42 0.27 0.27 0.25 0.45 0.72 0.84 0.47 0.55 0.49 0.40 1.81 2.31 1.29 0.95
0.01 nan 0.03 0.01 0.54 0.51 0.83 0.03 0.07 0.11 0.18 0.14 0.14 0.08 0.51 1.97 1.76 0.81 0.13 0.63 0.56 0.65 0.41 0.55 0.61 0.53 0.38 0.31 0.52 0.12 0.20 0.07 0.05 0.19 0.08 0.14 0.57 0.40 0.44 0.41 0.27 0.51 0.44 0.61 0.37 0.92 0.63 0.36 0.47 0.61 1.35 2.22 0.68 0.84
nan 0.07 0.20 0.10 0.85 1.23 2.21 0.03 0.08 0.06 0.56 0.31 0.14 0.25 0.65 0.58 0.33 0.01 1.01 0.30 0.79 0.75 0.51 0.40 0.25 0.39 0.47 0.31 0.16 0.08 0.15 0.11 0.47 0.61 0.53 0.45 0.36 0.37 0.33 0.33 0.29 0.77 0.68 0.46 0.25 0.45 0.65 0.51 0.68 2.01 1.30 1.39 1.42 3.19
nan 0.34 1.43 0.96 0.69 2.85 0.16 1.38 0.11 0.16 0.15 0.35 0.39 0.54 0.10 0.32 0.12 0.74 0.99 1.02 0.94 0.31 0.33 0.23 0.32 0.60 0.53 0.29 0.57 0.63 0.69 0.40 0.42 0.48 0.44 0.44 0.40 0.51 0.29 0.31 0.30 0.28 0.28 0.27 0.33 0.62 0.68 2.08 1.59 0.76 2.28 4.37 5.21 4.32
2.96 3.97 2.03 4.08 0.78 2.44 1.75 1.10 0.37 0.30 1.28 1.21 0.86 1.07 2.46 0.43 1.70 1.27 0.55 1.06 0.72 0.78 0.72 0.55 0.44 0.39 0.38 0.59 0.59 0.69 0.49 0.62 0.76 0.77 0.78 0.55 0.49 0.53 0.52 0.37 0.41 0.38 0.34 1.37 2.10 2.69 2.73 2.58 2.79 2.54 1.48 4.90 1.48 1.84
4.75 3.74 3.48 1.41 2.83 1.55 1.07 1.74 1.83 2.02 1.07 1.30 1.19 0.58 0.42 1.15 1.25 1.61 0.96 1.47 1.54 0.99 3.41 2.61 1.56 0.62 0.53 0.49 0.49 0.45 0.58 0.59 0.65 0.61 0.84 0.68 0.80 1.21 1.51 1.28 1.05 0.99 0.53 1.02 2.07 3.62 2.53 2.84 3.19 1.45 2.93 1.37 2.00 3.99
4.18 3.59 0.32 0.08 0.14 0.08 1.74 1.55 0.30 0.99 1.34 1.80 1.10 1.43 1.72 2.68 2.24 0.94 0.58 0.59 0.60 0.93 0.63 0.60 0.61 0.57 0.63 0.57 0.54 0.58 0.50 0.52 0.45 0.73 0.72 0.72 0.73 0.79 1.22 2.27 1.38 1.01 0.66 1.17 1.85 4.08 4.07 3.80 3.97 2.42 3.11 3.33 3.59 4.02
0.93 0.47 1.71 1.29 1.85 0.25 1.44 0.97 1.23 1.46 0.90 0.33 0.97 1.69 2.13 1.94 1.23 1.02 0.78 0.84 1.03 0.47 0.40 0.38 0.34 0.37 0.42 0.52 0.65 0.79 0.80 0.82 1.00 0.81 0.62 0.56 0.63 1.25 1.21 1.12 1.03 2.38 1.43 2.93 3.51 3.83 2.79 4.25 4.57 4.51 3.86 3.93 4.42 3.80
1.31 0.64 0.73 1.85 1.09 1.03 1.53 1.71 1.39 0.57 0.26 0.69 2.77 1.48 1.25 0.62 1.44 0.99 0.83 0.81 0.94 0.86 0.87 1.09 1.43 1.83 0.92 0.72 1.16 0.87 1.26 1.52 1.27 1.58 2.04 2.15 2.15 2.00 1.24 1.47 1.59 2.12 1.99 2.25 2.62 2.65 2.55 3.07 3.56 3.94 3.74 4.57 4.26 4.69
1.10 0.46 1.36 1.40 1.39 1.16 2.64 1.69 2.26 1.74 0.18 0.59 0.33 0.29 0.37 1.05 1.65 1.09 1.15 1.04 1.35 3.24 4.90 3.79 3.46 3.23 4.74 3.28 2.70 1.94 2.10 2.86 2.45 3.44 3.72 2.71 2.36 2.19 2.59 3.16 3.04 2.87 2.86 5.55 3.37 1.76 2.78 3.53 3.78 4.93 4.15 3.66 3.94 4.26
0.46 1.61 1.90 1.06 1.80 3.49 3.12 3.53 3.57 1.77 1.88 3.05 3.23 3.39 2.17 1.47 1.78 1.17 0.95 1.46 1.53 5.66 6.04 6.30 6.08 6.30 4.89 3.03 5.05 4.50 3.02 4.68 1.91 1.38 1.36 2.12 2.64 3.61 3.79 3.28 3.34 3.75 3.95 3.71 4.73 3.53 3.46 4.23 4.38 4.31 3.06 2.61 2.66 2.71
2.17 3.50 2.82 1.57 2.39 4.60 2.47 5.66 4.36 3.77 4.89 4.39 5.14 4.32 4.96 4.01 2.31 1.71 1.81 3.10 4.01 4.67 2.73 3.80 5.85 2.57 2.49 2.28 4.00 3.09 3.17 1.84 1.88 1.89 1.97 2.62 3.30 3.82 2.40 1.96 4.52 4.47 3.57 3.93 3.31 3.53 2.99 3.93 3.97 4.17 3.50 3.06 2.77 2.40
5.35 3.77 2.49 2.21 4.78 2.74 3.07 4.03 1.05 3.65 3.18 3.78 4.43 3.84 3.97 3.17 2.02 2.53 0.97 2.72 3.62 3.82 3.13 4.41 4.69 5.61 2.91 2.55 2.29 2.47 2.88 2.13 2.68 3.49 3.08 3.08 3.07 2.96 2.71 4.03 4.84 3.73 2.26 3.15 3.50 3.15 2.79 2.18 2.44 2.84 2.96 3.35 3.10 2.68
SL_Ratio
nan nan nan nan nan nan nan nan nan nan nan nan nan nan nan nan nan nan nan nan 4.4 4.0 3.3 nan 0.0 4.0 3.3 3.5 5.3 4.0 6.4 4.7 4.2 5.3 5.3 4.6 4.2 3.5 4.2 3.0 3.5 3.8 4.5 5.2 5.1 5.9 8.4 nan nan 5.0 3.6 nan nan nan
nan nan nan nan nan nan nan nan nan nan nan nan nan nan nan nan nan nan nan nan nan 2.9 3.9 nan nan nan 0.0 nan 3.7 4.6 6.0 4.7 4.0 5.0 5.2 4.3 4.6 4.6 4.7 5.3 nan 4.4 4.0 4.1 4.2 4.0 nan nan nan nan nan nan nan nan
nan nan nan nan nan nan nan nan nan nan nan nan nan nan nan nan nan nan nan nan 2.7 3.2 3.8 4.4 3.2 nan nan nan nan 5.7 4.0 3.5 4.2 3.2 4.2 4.2 5.2 4.3 4.6 4.3 3.4 nan nan 3.7 3.8 nan nan nan nan nan nan nan nan nan
nan nan nan nan nan nan nan nan nan nan nan nan nan nan nan nan nan nan nan nan 2.5 3.6 4.9 4.7 nan 3.3 nan nan nan nan nan nan nan 4.0 4.7 4.7 5.2 3.6 4.1 3.7 4.2 3.2 2.7 4.6 2.6 nan nan nan nan nan nan nan nan nan
nan nan nan nan nan nan nan nan nan nan nan nan nan nan nan nan nan nan nan nan nan 5.4 4.7 4.0 0.0 nan nan nan nan nan nan 3.7 4.6 5.0 4.7 5.1 3.9 4.3 4.4 3.9 3.6 3.3 5.0 3.0 3.0 nan nan nan nan nan nan nan nan nan
nan nan nan nan nan nan nan nan nan nan nan nan nan nan nan nan nan nan 2.7 nan nan nan 5.0 5.2 4.0 3.4 3.3 3.1 3.3 5.0 nan 3.9 4.5 4.7 4.5 4.5 10.0 4.6 5.0 4.9 nan nan nan nan nan nan nan nan nan nan nan nan nan nan
nan nan nan nan nan nan nan nan nan nan nan nan nan nan nan nan nan 3.2 4.3 3.8 nan nan 4.5 4.7 4.1 4.0 3.3 3.6 3.8 3.6 3.8 3.8 4.6 4.8 4.9 4.6 4.8 4.1 4.2 5.1 nan nan nan nan nan nan 2.9 nan 2.5 nan nan nan nan nan
nan nan nan nan nan nan nan nan nan nan nan nan nan nan nan nan nan 3.6 nan nan nan 4.1 4.9 4.4 4.2 3.3 nan 4.2 4.4 3.9 4.6 4.7 4.7 4.8 4.9 5.0 4.3 4.8 5.5 nan nan nan nan nan nan nan nan nan nan nan nan nan nan nan
nan nan nan nan nan nan nan nan nan nan nan nan nan nan nan 2.5 2.5 2.5 nan nan nan 4.4 4.9 3.7 4.2 4.3 nan 4.0 4.1 4.7 4.3 5.1 4.8 4.9 5.0 5.0 5.1 5.7 5.0 nan nan nan nan nan nan nan nan nan nan nan nan nan nan nan
nan nan nan nan nan nan nan nan nan nan nan nan nan 2.5 2.6 2.6 nan nan 2.6 2.8 3.2 3.9 4.7 4.5 5.5 4.3 3.9 3.6 3.9 4.2 4.6 5.2 5.3 5.1 5.3 5.1 5.1 nan nan nan nan nan nan nan 5.0 2.6 5.0 0.0 nan nan nan nan nan nan
nan nan nan nan nan nan nan nan nan nan nan 2.6 2.7 2.5 nan nan 2.5 3.1 3.3 3.6 3.8 3.8 3.4 3.5 nan 3.2 nan 4.2 4.3 4.7 3.7 4.2 5.2 5.4 5.1 5.2 4.7 4.7 nan nan nan nan nan nan nan nan nan nan nan nan nan nan nan nan
nan nan nan nan nan nan nan nan nan nan nan nan nan nan nan 2.7 3.4 4.0 3.3 3.1 3.3 3.8 3.5 3.2 3.5 3.5 3.3 nan 3.9 3.4 4.5 4.8 7.1 4.5 4.3 4.5 4.0 2.6 nan 3.0 nan nan nan nan nan nan nan nan nan nan nan nan nan 2.9
nan nan nan nan nan nan nan nan nan nan nan nan 3.4 3.9 3.6 2.8 5.4 3.1 4.0 4.8 3.1 2.7 2.9 2.8 3.2 3.5 3.5 3.7 3.5 3.6 3.8 3.5 3.2 3.9 4.0 4.3 5.7 3.0 3.7 nan nan nan nan 5.6 nan nan nan nan nan 4.5 4.4 4.3 3.9 4.4
nan nan nan nan nan nan nan nan nan nan nan 3.5 3.5 6.3 2.9 2.8 3.1 2.6 4.0 5.1 2.7 2.6 3.3 3.5 3.7 4.0 3.4 4.2 3.0 3.3 2.5 2.9 3.7 5.0 4.4 4.2 4.4 4.1 4.9 4.7 4.3 4.2 4.3 4.7 4.3 3.9 3.5 3.8 4.6 3.7 3.5 3.9 4.5 4.9
nan nan nan nan nan nan nan nan nan nan 2.7 3.6 3.7 4.8 3.1 2.6 2.5 2.6 2.5 2.5 2.5 3.1 3.5 3.8 3.8 4.0 3.7 3.3 2.6 2.7 3.1 3.0 3.4 5.3 4.3 3.8 4.3 4.3 5.0 5.2 5.1 4.9 4.4 4.5 4.5 4.0 4.0 4.6 5.3 5.2 4.8 5.0 5.2 4.8
nan nan nan nan nan nan nan nan nan 2.4 3.4 3.4 3.5 3.1 2.7 3.1 2.7 2.5 2.6 2.5 3.2 3.4 3.7 3.7 3.8 4.4 3.4 2.8 3.7 2.8 4.1 4.7 5.0 4.5 4.0 3.8 4.9 5.0 5.3 5.0 4.8 5.1 5.1 5.0 5.0 5.3 4.9 5.0 5.0 5.6 5.3 5.4 4.7 4.7
nan 3.8 nan nan nan nan nan 5.0 nan 5.0 3.4 4.0 3.1 2.7 3.4 2.9 2.8 2.8 3.6 3.6 2.6 3.4 3.0 3.4 4.1 5.6 3.4 4.1 5.9 5.5 4.8 5.3 4.4 4.0 3.7 5.2 5.3 5.0 4.1 4.1 4.4 4.4 4.7 4.9 5.0 5.2 5.4 5.4 5.5 5.9 6.2 5.9 5.7 5.7
nan nan nan nan nan nan 2.5 0.0 3.4 3.6 5.0 3.0 3.7 3.2 2.8 2.8 3.4 3.5 2.6 2.5 3.3 3.8 3.7 4.4 4.5 5.0 3.3 4.6 4.4 5.0 4.3 3.7 3.8 4.0 3.9 3.7 4.3 4.5 4.6 5.0 4.8 5.3 5.1 5.2 5.5 5.4 5.5 5.5 5.8 5.4 5.8 5.8 5.9 5.9
nan nan nan nan 5.0 4.9 3.9 3.6 3.4 4.2 3.3 2.9 2.9 2.7 2.7 3.0 3.1 2.7 2.5 2.5 3.5 3.1 4.5 4.5 4.0 4.2 4.3 5.0 4.3 4.0 3.9 4.2 4.6 4.1 4.1 4.1 4.0 4.2 4.4 4.9 5.0 5.3 5.4 5.4 5.4 5.0 5.0 5.5 5.4 5.1 5.2 5.1 5.1 5.3
nan nan nan nan nan 4.4 4.8 4.1 4.0 3.4 3.3 3.2 2.7 3.0 2.9 3.3 3.4 2.5 2.5 3.0 3.1 3.8 4.1 4.3 4.7 5.0 5.1 4.8 4.8 4.4 4.4 4.0 4.4 4.9 4.4 4.2 4.0 4.6 4.1 4.8 4.7 4.8 4.9 5.2 4.8 4.4 5.2 5.2 5.2 4.5 4.3 4.6 4.7 5.3
nan nan nan nan 3.8 4.1 4.1 3.9 4.3 2.9 2.6 3.2 2.8 2.7 3.5 3.7 3.5 3.3 3.3 3.0 3.5 4.0 4.7 4.6 4.6 4.5 5.2 4.7 4.6 4.6 4.6 4.8 4.4 5.5 5.0 6.3 4.0 3.6 3.7 3.7 3.6 3.6 3.8 4.7 4.4 5.0 4.6 4.6 4.4 4.1 3.4 3.4 3.4 3.6
5.2 nan 5.2 3.6 4.1 4.2 4.1 2.6 3.2 3.5 3.3 2.6 2.8 2.8 3.2 3.3 3.3 3.4 3.9 4.0 5.3 5.4 4.8 5.2 5.1 4.8 4.8 5.4 5.0 6.6 6.7 6.2 5.7 3.9 4.2 4.0 4.9 4.2 4.2 3.8 3.7 4.0 4.1 3.8 4.0 4.2 4.5 4.2 3.8 3.8 3.6 3.3 3.4 3.4
nan 4.9 4.3 4.0 4.7 5.8 7.5 2.9 4.6 2.8 3.8 3.1 3.1 3.4 3.4 3.4 3.6 3.7 4.3 5.4 6.1 4.9 4.8 4.9 5.6 6.3 5.9 6.2 7.1 6.4 6.1 7.1 5.5 5.6 4.7 4.7 4.2 3.8 3.7 3.8 3.5 3.6 4.1 4.5 3.8 4.0 4.2 3.3 3.5 3.4 3.4 3.5 3.7 3.8
nan 5.6 4.0 3.6 5.6 5.0 3.0 3.5 3.8 4.0 3.4 3.3 3.7 4.3 4.2 4.4 3.5 4.6 5.8 6.5 6.7 4.6 5.1 6.6 4.4 5.2 5.7 7.6 6.8 7.2 6.7 6.3 6.4 5.9 5.9 5.9 5.1 4.8 4.2 4.4 3.7 3.7 4.2 4.3 3.8 3.7 3.8 3.5 3.1 3.6 3.6 3.5 3.4 3.9
6.4 6.0 3.7 8.9 3.3 4.2 3.9 3.5 4.3 4.4 5.0 4.4 5.2 4.9 5.7 4.9 6.8 7.1 7.3 8.1 7.0 6.6 6.5 5.6 5.9 5.5 6.0 5.9 6.5 7.7 9.1 7.9 7.8 8.2 7.6 6.8 5.8 5.4 5.6 5.0 5.2 5.2 4.5 3.5 3.9 3.7 3.8 3.7 3.7 3.6 3.8 3.6 4.2 3.9
7.9 3.5 7.8 3.8 4.5 4.5 5.2 5.6 5.7 4.9 4.8 4.9 4.5 4.5 3.1 4.6 6.1 8.5 9.2 8.0 6.8 7.7 5.7 5.9 6.4 6.6 7.8 6.9 7.0 8.4 8.4 7.5 6.6 8.5 9.2 8.6 8.5 6.3 5.9 6.2 6.3 6.2 5.5 3.9 4.0 3.7 3.8 3.8 3.7 3.9 3.8 3.6 3.2 3.6
8.1 4.5 4.1 3.7 3.7 3.7 4.4 3.5 3.7 4.1 5.5 6.0 5.4 4.9 5.0 6.9 7.0 8.4 8.4 7.5 8.5 8.0 6.7 6.5 6.6 7.2 8.0 7.8 7.3 7.1 6.6 6.3 7.6 9.0 7.8 9.0 9.4 9.6 7.4 6.1 7.4 7.2 6.5 4.8 3.8 3.5 3.6 3.6 3.6 3.8 3.9 3.6 3.6 3.7
4.7 4.3 7.0 3.6 4.0 3.1 4.7 4.6 5.0 5.4 4.6 4.7 5.3 6.2 6.0 6.4 8.9 8.8 8.9 8.0 7.5 6.2 6.1 6.0 5.9 6.9 7.3 7.7 7.6 7.1 5.6 5.8 5.7 6.6 6.2 6.3 7.1 7.7 7.8 7.3 7.1 3.0 6.1 4.9 4.2 4.1 3.9 3.6 3.7 3.6 3.8 3.9 4.4 3.9
5.4 3.8 3.9 8.1 6.1 4.6 6.2 5.7 5.5 5.1 4.4 4.2 5.0 7.3 7.5 8.8 8.1 8.7 9.3 8.7 6.3 6.3 6.8 6.7 7.1 5.4 6.0 5.6 5.9 5.9 5.9 5.8 5.5 6.7 5.9 6.9 6.1 6.3 6.5 6.1 5.8 5.3 5.5 5.5 3.0 3.7 4.5 4.5 4.2 4.1 3.3 4.0 4.0 4.0
5.9 3.2 4.7 6.0 8.6 7.3 6.8 6.2 6.0 6.0 5.2 5.8 5.1 6.4 7.9 9.4 9.4 7.2 8.0 7.7 7.3 6.2 5.5 5.7 5.8 5.4 5.7 6.1 6.5 6.0 5.2 4.9 5.3 5.8 6.2 6.6 6.8 6.5 6.0 5.1 4.9 4.8 4.8 4.4 5.4 6.8 3.5 4.8 3.8 4.6 4.8 5.3 4.9 5.2
3.7 3.6 4.3 4.4 6.7 5.8 5.8 5.0 5.1 5.5 5.0 5.0 5.1 5.4 6.7 8.0 8.3 8.1 8.4 7.6 7.3 5.3 5.2 5.3 5.4 4.9 5.6 6.4 5.6 5.9 6.8 5.5 6.5 6.5 6.2 6.0 6.4 5.6 5.1 5.1 4.8 4.6 4.5 4.8 4.8 6.0 6.8 6.5 5.7 5.2 5.7 5.4 6.0 6.3
4.5 4.2 6.6 7.2 6.3 5.4 5.4 4.6 4.7 4.8 5.0 5.4 5.6 5.4 5.9 6.4 7.9 8.5 8.4 7.0 6.4 6.0 3.3 6.4 5.8 7.1 6.7 6.6 5.6 5.8 3.2 7.3 7.4 7.6 6.3 6.7 6.2 6.0 5.8 5.9 4.9 4.6 4.7 4.8 5.2 5.6 5.9 6.5 7.0 6.8 6.5 6.2 6.3 6.6
4.7 4.7 5.2 5.7 5.5 5.4 5.7 5.0 5.0 5.5 5.8 6.2 6.2 6.4 6.3 7.0 8.7 8.3 9.0 7.4 6.6 6.6 7.1 6.4 6.3 5.8 6.7 6.4 6.8 6.9 4.2 7.4 5.3 3.0 3.0 3.0 3.0 3.6 6.6 5.9 5.5 5.8 6.0 6.0 5.9 6.2 6.3 7.0 8.0 7.6 8.2 8.4 7.9 7.1